Location: Cortada Guamacho
(10.5667°N, 67.0833°W)
Time: 09:21:03
(UTC+00:00)

Cosmos 1470 Rocket - Visible Passes

Search period start: 26 June 2022 00:00
Search period end: 06 July 2022 00:00
Orbit: 602 x 634 km, 82.5° (Epoch: 25 June)

Date Brightness Start Highest point End Pass type
(mag) Time Alt. Az. Time Alt. Az. Time Alt. Az.
26 Jun 6.3 08:45:10 10° SE 08:47:57 17° E 08:50:43 10° NE visible
27 Jun 5.0 09:00:55 10° SSE 09:04:54 37° E 09:08:52 10° NNE visible
28 Jun 3.5 09:17:34 10° S 09:21:53 88° E 09:26:11 10° N visible
29 Jun 4.0 09:34:53 10° SSW 09:38:54 38° W 09:42:55 10° NNW visible
30 Jun 6.2 08:15:32 10° SE 08:18:23 17° E 08:21:13 10° NE visible
01 Jul 4.8 08:31:45 12° SSE 08:35:20 38° E 08:39:19 10° NNE visible
02 Jul 3.4 08:49:34 22° S 08:52:19 89° W 08:56:37 10° N visible
03 Jul 4.1 09:07:20 24° SW 09:09:20 37° W 09:13:18 10° NNW visible
04 Jul 5.9 07:47:52 17° ESE 07:48:48 18° E 07:51:43 10° NE visible
04 Jul 5.1 09:25:03 15° WSW 09:26:22 17° W 09:29:11 10° NW visible
05 Jul 4.6 08:05:32 39° E 08:05:45 39° E 08:09:46 10° NNE visible
